SCP
0 0 0 0 0 0 0 0 0 0 0 0 0 0 0 0 0 0 0 0 0 0 0 0 0 0 0 0 0 0 0 0 0 0 0 0 0 0 0 0 0 0 0
0 0 0 0 0 0 0 0 0 0 0 0 0 0 0 0 0 0 0 0 0 0 0 0 0 0 0 0 0 0 0 0 0 0 0 0 0 0 0 0 0 0 0
0 0 0 0 0 0 0 0 0 0 0 0 0 0 0 0 0 0 0 0 0 0 0 0 0 0 0 0 0 0 0 0 0 0 0 0 0 0 0 0 0 0 0
0 0 0 0 0 0 0 0 0 0 0 0 0 0 0 0 0 0 0 0 0 0 0 0 0 0 0 0 0 0 0 0 0 0 0 0 0 0 0 0 0 0 0
0 0 0 0 0 0 0 0 0 0 0 0 0 0 0 0 0 0 0 0 0 0 0 0 0 0 0 0 0 0 0 0 0 0 0 0 0 0 0 0 0 0 0
0 0 0 0 0 0 0 0 0 0 0 0 0 0 0 0 0 0 0 0 0 0 0 0 0 0 0 0 0 0 0 0 0 0 0 0 0 0 0 0 0 0 0
0 0 0 0 0 0 0 0 0 0 0 0 0 0 0 0 0 0 0 0 0 0 0 0 0 0 0 0 0 0 0 0 0 0 0 0 0 0 0 0 0 0 0
0 0 0 0 0 0 0 0 0 0 0 0 0 0 0 0 0 0 0 0 0 0 0 0 0 0 0 0 0 0 0 0 0 0 0 0 0 0 0 0 0 0 0
0 0 0 0 0 0 0 0 0 0 0 0 0 0 0 0 0 0 0 0 0 0 0 0 0 0 0 0 0 0 0 0 0 0 0 0 0 0 0 0 0 0 0
0 0 0 0 0 0 0 0 0 0 0 0 0 0 0 0 0 0 0 0 0 0 0 0 0 0 0 0 0 0 0 0 0 0 0 0 0 0 0 0 0 0 0
0 0 0 0 0 0 0 0 0 0 0 0 0 0 0 0 0 0 0 0 0 0 0 0 0 0 0 0 0 0 0 0 0 0 0 0 0 0 0 0 0 0 0
0 0 0 0 0 0 0 0 0 0 0 0 0 0 0 0 0 0 0 0 0 0 0 0 0 0 0 0 0 0 0 0 0 0 0 0 0 0 0 0 0 0 0
0 0 0 0 0 0 0 0 0 0 0 0 0 0 0 0 0 0 0 0 0 0 0 0 0 0 0 0 0 0 0 0 0 0 0 0 0 0 0 0 0 0 0
0 0 0 0 0 0 0 0 0 0 0 0 0 0 0 0 0 0 0 0 0 0 0 0 0 0 0 0 0 0 0 0 0 0 0 0 0 0 0 0 0 0 0
0 0 0 0 0 0 0 0 0 0 0 0 0 0 0 0 0 0 0 0 0 0 0 0 0 0 0 0 0 0 0 0 0 0 0 0 0 0 0 0 0 0 0
0 0 0 0 0 0 0 0 0 0 0 0 0 0 0 0 0 0 0 0 0 0 0 0 0 0 0 0 0 0 0 0 0 0 0 0 0 0 0 0 0 0 0
0 0 0 0 0 0 0 0 0 0 0 0 0 0 0 0 0 0 0 0 0 0 0 0 0 0 0 0 0 0 0 0 0 0 0 0 0 0 0 0 0 0 0
0 0 0 0 0 0 0 0 0 0 0 0 0 0 0 0 0 0 0 0 0 0 0 0 0 0 0 0 0 0 0 0 0 0 0 0 0 0 0 0 0 0 0
0 0 0 0 0 0 0 0 0 0 0 0 0 0 0 0 0 0 0 0 0 0 0 0 0 0 0 0 0 0 0 0 0 0 0 0 0 0 0 0 0 0 0
0 0 0 0 0 0 0 0 0 0 0 0 0 0 0 0 0 0 0 0 0 0 0 0 0 0 0 0 0 0 0 0 0 0 0 0 0 0 0 0 0 0 0
0 0 0 0 0 0 0 0 0 0 0 0 0 0 0 0 0 0 0 0 0 0 0 0 0 0 0 0 0 0 0 0 0 0 0 0 0 0 0 0 0 0 0
0 0 0 0 0 0 0 0 0 0 0 0 0 0 0 0 0 0 0 0 0 0 0 0 0 0 0 0 0 0 0 0 0 0 0 0 0 0 0 0 0 0 0
0 0 0 0 0 0 0 0 0 0 0 0 0 0 0 0 0 0 0 0 0 0 0 0 0 0 0 0 0 0 0 0 0 0 0 0 0 0 0 0 0 0 0
0 0 0 0 0 0 0 0 0 0 0 0 0 0 0 0 0 0 0 0 0 0 0 0 0 0 0 0 0 0 0 0 0 0 0 0 0 0 0 0 0 0 0
0 0 0 0 0 0 0 0 0 0 0 0 0 0 0 0 0 0 0 0 0 0 0 0 0 0 0 0 0 0 0 0 0 0 0 0 0 0 0 0 0 0 0
0 0 0 0 0 0 0 0 0 0 0 0 0 0 0 0 0 0 0 0 0 0 0 0 0 0 0 0 0 0 0 0 0 0 0 0 0 0 0 0 0 0 0
Wind_Speed
3 2 2 2 2 2 2 2 3 4 5 5 5 6 6 7 6 5 5 11 12 13 13 13 13 12 12 12 12 12 12 12 12 11 11 11 11 10 9 9 9 9 8
3 3 3 2 2 2 2 2 3 3 4 4 5 5 5 5 5 5 4 7 12 12 12 12 12 12 11 12 12 12 12 12 12 12 11 12 11 11 10 9 9 9 8
4 3 2 2 1 2 3 3 3 3 3 4 4 5 5 5 4 5 4 3 5 10 12 12 11 11 11 11 12 12 12 12 12 12 12 12 11 11 10 9 9 9 9
4 3 2 2 2 3 3 3 3 3 3 3 3 3 3 3 4 4 4 4 3 4 7 10 10 10 11 11 11 12 12 12 12 12 12 11 11 11 11 10 9 9 9
4 3 2 2 3 3 2 2 3 3 3 3 2 3 3 3 3 4 4 4 4 4 3 6 9 9 9 10 11 11 11 11 11 11 11 11 11 11 10 10 10 10 10
3 3 2 3 3 3 2 3 3 2 2 1 2 3 2 2 3 3 3 3 3 3 4 4 3 5 9 10 10 10 10 10 10 10 10 10 10 10 10 10 10 10 10
3 2 2 2 2 3 2 2 2 2 1 1 2 2 2 3 3 2 2 2 3 3 3 3 3 3 3 7 8 8 8 8 8 8 9 9 9 9 9 9 9 10 10
2 2 2 2 3 2 2 2 2 1 1 1 1 1 1 2 2 2 1 2 2 2 3 3 3 4 3 3 5 8 8 7 7 7 7 7 7 8 8 8 9 9 10
2 2 2 2 2 2 2 1 1 1 1 1 1 1 1 1 0 1 1 2 2 2 2 2 3 3 4 3 3 5 6 6 6 6 5 6 6 6 7 8 8 9 9
1 2 2 2 2 2 2 1 2 1 1 0 1 1 1 2 2 0 1 1 2 2 1 2 3 3 4 3 4 5 6 6 5 5 5 5 5 5 6 7 7 8 8
1 2 2 2 2 2 2 1 1 1 1 1 0 1 1 1 0 2 0 1 1 1 1 2 2 2 3 3 3 4 5 5 4 4 4 5 5 6 6 6 6 6 7
1 2 2 2 2 2 2 2 1 1 1 1 1 1 1 0 0 1 1 1 0 0 1 2 2 2 2 3 4 5 5 4 4 4 4 4 5 5 6 5 5 5 5
1 2 1 1 2 2 2 2 1 2 2 1 1 1 1 0 1 1 1 0 0 0 1 1 1 2 2 3 3 5 4 4 4 4 4 5 5 5 5 5 5 5 5
2 2 2 1 1 1 1 2 2 2 2 1 1 1 1 1 0 1 1 1 0 1 0 1 1 2 2 3 3 4 2 4 4 4 4 4 4 5 5 4 4 4 4
2 3 2 2 1 1 1 1 1 2 1 1 2 2 1 1 1 0 1 2 2 1 1 1 1 1 2 3 4 2 2 4 4 4 4 3 3 4 4 3 3 3 4
2 3 2 2 2 2 1 1 1 1 1 1 1 2 1 1 1 1 1 0 1 2 1 1 1 2 2 3 4 2 2 5 5 4 3 3 3 3 3 2 2 2 3
2 2 2 2 2 2 2 2 2 2 2 2 2 3 3 2 2 1 1 1 0 1 2 1 1 2 3 2 2 2 2 3 2 4 4 4 4 4 3 3 2 2 2
2 2 3 2 2 1 2 2 2 2 2 2 2 2 2 2 2 2 2 2 2 2 2 2 1 1 2 3 3 3 2 3 2 4 5 5 5 4 4 4 3 3 2
1 2 2 2 1 1 0 1 1 1 1 2 2 2 2 2 2 2 2 2 2 1 1 2 1 1 1 2 2 2 2 1 2 4 5 6 6 5 5 4 4 4 3
1 1 2 2 2 2 1 1 1 1 2 2 2 2 2 2 2 1 2 2 2 1 1 1 1 1 1 2 2 1 1 1 1 2 3 3 5 6 6 6 6 5 5
0 1 1 1 2 2 1 1 1 1 1 1 1 1 2 2 2 1 1 1 1 1 2 1 1 1 1 1 2 2 2 1 1 2 2 2 2 2 3 5 7 7 7
1 1 0 1 1 1 1 1 0 1 1 1 2 2 2 2 2 2 2 2 1 2 2 2 2 2 3 3 2 2 2 1 1 2 2 2 2 2 2 3 6 8 8
1 1 1 1 1 1 2 2 1 1 1 2 2 2 1 1 2 2 2 3 4 4 4 3 3 3 3 3 3 3 3 3 3 3 2 2 2 2 3 4 8 9 9
1 1 1 1 1 1 2 2 2 2 2 2 2 1 1 1 2 2 2 2 3 3 4 3 4 4 3 3 4 4 4 3 2 1 2 2 2 2 2 2 7 10 9
1 1 1 1 2 2 3 3 2 1 2 3 2 1 1 2 2 2 2 2 2 2 2 3 3 3 3 3 3 2 2 2 2 2 2 2 2 2 2 2 4 9 9
1 1 1 1 1 1 2 2 3 1 2 2 2 2 2 2 2 3 3 3 3 3 1 1 1 2 2 2 3 4 4 3 2 2 2 3 2 1 1 2 2 3 5
Wind_Direction
88 94 89 68 55 64 62 46 43 48 46 38 52 59 63 69 71 73 70 69 70 69 70 73 75 74 71 71 72 71 71 70 69 68 67 68 68 70 74 78 77 77 79
92 86 89 70 54 53 61 65 61 56 58 49 52 56 64 72 72 80 82 71 68 67 66 71 74 73 72 72 73 72 72 70 69 68 68 69 68 69 73 78 79 77 76
84 80 81 71 60 53 56 54 54 58 70 63 57 56 55 59 71 81 87 87 76 67 68 70 71 73 74 75 74 73 72 71 68 67 69 70 69 69 69 74 77 78 78
82 77 78 70 59 53 53 55 52 55 57 58 53 54 54 47 57 66 74 85 89 83 73 73 72 72 74 75 77 75 72 71 70 69 71 70 70 68 66 69 73 79 79
83 85 76 78 68 55 47 50 52 59 68 64 67 70 61 56 47 53 63 74 83 96 97 82 76 73 70 72 74 75 74 73 72 72 71 69 68 67 68 71 75 78 77
79 83 85 74 75 69 52 52 56 49 64 73 63 65 66 78 59 45 43 65 77 93 104 104 92 75 73 71 71 69 73 74 73 73 72 70 68 67 70 74 78 79 78
88 83 77 74 75 85 82 75 64 52 38 66 71 49 37 68 80 69 40 51 67 73 92 103 103 95 83 72 68 67 67 70 74 74 72 71 70 71 72 75 77 79 79
92 116 112 103 94 94 78 74 73 49 351 31 97 91 61 24 21 83 74 64 60 55 68 85 107 106 99 83 68 63 58 61 69 75 76 73 71 72 74 76 80 80 81
145 124 112 116 121 112 108 109 111 86 5 345 52 94 109 132 330 9 81 84 78 61 53 57 74 87 100 94 84 60 58 53 60 67 73 78 77 79 80 84 83 83 81
133 127 123 121 123 125 138 184 147 135 122 332 359 32 101 141 134 42 348 67 116 100 83 69 65 71 90 96 91 79 66 49 51 59 67 79 83 89 90 89 88 87 84
160 142 132 129 129 136 153 184 151 169 156 174 149 49 17 12 117 129 208 310 42 88 110 99 86 80 90 104 101 87 78 64 53 55 64 80 89 91 90 91 91 92 90
163 152 156 162 158 162 171 175 173 167 186 190 151 139 161 153 271 127 155 210 148 175 103 97 102 97 96 96 105 103 94 79 65 60 68 82 93 96 96 95 94 92 94
161 183 174 180 174 174 175 169 174 182 196 188 183 188 167 190 191 133 124 178 95 196 100 104 122 117 114 107 108 113 105 93 80 72 78 86 94 96 95 100 98 95 95
179 176 179 182 190 181 174 164 173 188 191 186 185 160 154 217 154 154 154 136 87 343 64 174 121 127 121 120 136 135 124 125 114 97 93 95 96 96 97 93 91 88 90
175 164 173 181 197 194 191 168 172 200 181 175 178 171 178 185 188 194 148 149 149 166 263 205 169 151 129 112 140 146 138 155 141 128 116 108 105 106 101 93 89 85 82
167 150 174 192 196 187 190 185 163 230 169 174 161 162 179 187 177 166 160 178 151 162 204 213 180 168 146 138 157 154 147 148 147 148 149 147 138 130 124 116 103 96 89
175 164 174 188 206 203 186 181 195 218 197 200 200 182 194 181 169 187 174 171 216 153 168 244 178 157 138 140 130 149 145 144 153 170 172 172 167 164 165 164 150 131 117
184 169 166 180 202 215 213 201 205 212 204 213 220 199 197 179 185 194 183 195 208 201 167 191 207 157 167 167 159 169 164 166 163 175 180 183 182 182 181 179 178 170 164
177 175 163 167 188 198 246 260 212 237 219 215 225 227 209 176 194 198 183 196 208 210 169 173 200 191 180 169 151 176 170 168 176 174 183 189 191 192 195 195 191 191 189
182 168 168 171 178 184 185 224 216 246 241 234 224 210 187 176 183 196 185 199 192 179 172 168 183 189 188 198 154 169 181 192 202 193 185 184 191 202 208 207 203 201 197
266 215 179 171 177 178 177 187 243 254 250 245 237 212 164 143 149 160 175 215 199 181 176 178 187 187 198 177 192 188 187 196 231 198 167 187 183 196 210 218 213 206 203
280 259 182 173 155 175 146 172 269 248 239 249 249 240 201 175 191 205 228 234 222 201 200 188 196 201 215 202 185 181 183 182 253 232 162 208 178 203 214 205 200 200 202
304 299 259 189 167 171 147 167 248 270 259 247 245 246 247 187 175 194 223 241 245 245 224 201 202 216 205 197 179 187 192 193 214 214 157 217 213 214 221 214 201 201 202
296 283 267 234 214 194 180 195 230 230 252 255 243 229 217 216 218 187 190 220 235 236 228 228 222 221 212 194 189 190 192 191 224 228 162 204 224 224 224 215 205 199 199
280 284 279 253 223 205 199 214 211 229 253 265 259 231 207 215 240 222 199 228 241 262 250 229 236 224 194 182 181 158 167 165 231 246 198 182 216 225 228 221 210 201 202
279 280 287 278 249 201 185 198 200 217 248 266 267 258 252 250 242 211 205 216 226 234 242 288 260 245 223 211 196 179 180 186 202 236 216 178 206 180 248 242 203 197 205